sat.trackr.live / text

‹ back to catalog

STARLINK-6061

NORAD 56795 · 2023-078AE

PAYLOAD ACTIVE UNKNOWN

§ Identity

Operator
Country
US
Launch date
2023-05-31
Launch site
AFWTR
Launch vehicle
Mass (kg)
RCS (m²)

Purposes: comms

External: N2YO · Heavens-Above · Gunter

§ Orbital elements

Epoch: 2026-05-25T02:27:33.249024Z

Period
96.11 min
Inclination
69.9986°
Eccentricity
0.0003787
Mean motion
14.98331061 rev/d
Perigee alt
569.4 km
Apogee alt
574.7 km
Semi-major
6,950.2 km
B*
1.8412e-5
RAAN
131.6221°
Arg perigee
265.6913°
Mean anomaly
94.3813°
Rev number
16,462

§ Raw data

STARLINK-60611 56795U 23078AE  26145.10246816  .00000127  00000+0  18412-4 0  99972 56795  69.9986 131.6221 0003787 265.6913  94.3813 14.98331061164627

JSON: /api/v1/satellites/56795 · /tle

For live sub-satellite position, see the globe view (requires WebGL).

§ Visibility from observer

Set your observer location to see the next 7 days of passes ≥ 10°. The values pass through the URL so the page stays shareable.

No JS? Fill the form by hand. The geolocation button needs JavaScript.